EUTE 1-F4 (ECS 4)

导读

EUTE 1-F4(ECS 4)是欧洲通信卫星组织(Eutelsat)所属ECS-1系列通信卫星,于1987年9月16日由欧洲方面发射升空。该卫星配置12个14/11 GHz转发器,可承载约12000路电话或10个电视频道传输,设计寿命7年。其采用地球静止轨道,依靠大面积太阳能阵列供电,为欧洲区域提供广播电视与通信中继服务,是欧洲早期自主通信卫星组网的重要组成部分。

基本信息
目录编号:
18351
目录名称:
EUTE 1-F4 (ECS 4)
国际标识:
1987-078B
轨道中心:
EARTH
卫星名称:
EUTE 1-F4 (ECS 4)
卫星全名:
--
卫星状态:
在轨 (已飞行14154 天)
发射日期:
1987-09-16 UTC
国别 :
(EUTE)
星等 :
--
轨道信息
数据来源 国际轨道数据 AOE轨道数据
星历时间 2026-06-17T11:21:16+0800
5小时前
查看轨道信息
2026-06-15T10:00:00+0800
2天前
查看轨道信息
半长轴 42614.134km 42613.961km
偏心率 0.0010921 0.0011121
轨道倾角 13.829° 13.830°
近地点辐角 44.690° 43.924°
升交点赤经 342.127° 342.145°
平近点角 240.438° 230.556°
近地点 36189.458km 36188.433km
远地点 36282.536km 36283.215km
周期 1459.117分钟 1459.108分钟
每日圈数 0.986898 0.986904
详细信息
使用方式:
暂无
2D轨道图
3D轨道图
轨道高度分析图
轨道倾角分析图
轨道综合分析图
查看轨道综合分析图